Tracking 19903 objects as of 17-Oct-2019
HD Live streaming from Space Station
objects crossing your sky now

IRIDIUM 33 DEB

Track IRIDIUM 33 DEB now!
10-day predictions


NORAD ID: 35922
Int'l Code: 1997-051UF
Perigee: 697.8 km
Apogee: 739.3 km
Inclination: 86.4 °
Period: 99.0 minutes
Semi major axis: 7089 km
RCS: 0.0104 m2 (small)
Launch date: September 14, 1997
Source: United States (US)
Launch site: TYURATAM MISSILE AND SPACE COMPLEX (TTMTR)

Note: This is SATELLITE DEBRIS
aabbcc
Your satellite tracking list
Your tracking list is empty




NASA's NSSDC Master Catalog

Two Line Element Set (TLE):
1 35922U 97051UF  19287.22922526  .00001101  00000-0  25264-3 0  9995
2 35922  86.3881 264.2875 0029303 194.7907 165.2446 14.54376753536563
Source of the keplerian elements: AFSPC